ARIANE 5 DEB (SYLDA), 49334

Orbit data source: Space-Track

ARIANE 5 DEB (SYLDA), 49334 is space debris in HEO originally from a launch on Sun, 24 Oct 2021 UTC launched from the French Guiana (FRGUI). Debris objects in space refer to the collection of defunct objects orbiting the Earth. Examples of debris include non-operational satellites, rocket bodies, and fragments generated from explosions, collisions, or faulty payload assembly.

Loading next visibility...
Identifier
49334, 2021-095C
Orbit
HEO
Country
Flag of FRFR
Related business
Manufacturer
ADS/Bremen
Mission
Spacecraft
Bus & Motor
SYLDA 5, Unknown motor
Mass
440 kg wet, 440 kg dry
Launch date (UTC)
2021-10-24 (4 years ago)
Launch vehicle
Unknown
Launch site
French Guiana (FRGUI)
Object type
Payload
Rocket body
Debris
Shape & HBR
Cyl, 2.8 m
Radar Cross Section
27.391 m², Large (>1 m²)

Expand to show TLE details & history
Last TLE update: 12 hours ago

TLE from 12 hours ago
0 ARIANE 5 DEB (SYLDA)
1 49334U 21095C   26071.39943202  .01365826 -56971-6  55591-2 0  9991
2 49334   6.1293 273.5250 4690351 122.5281 291.4584  6.35228695 52713
Epoch: 2026-03-12T09:35Z
TLE epoch observation values (Epoch: 2026-03-12T09:35:10.926Z)
Latitude
-0.00002°
Longitude
-40.34424°
Altitude
6,463.128 km
Speed
5.452 km/s
True Right ascension
18h 14m 00s
True Declination
0° 00' 00"
Sunlit
Object was in daylight at epoch
Visualization orbit readout
Latitude
Unknown
Longitude
Unknown
Altitude
Unknown
Speed
Unknown
Apparent Right ascension
Unknown
Apparent Declination
Unknown
Sunlit
N/A
Visualization observer readout
Local Sidereal Time
01:56:35
Azimuth
Unknown
Elevation
Unknown
Doppler factor
Unknown
Orbital elements
Apogee altitude
11,721.123 km
Perigee altitude
163.621 km
Semi-major axis
12,320.509 km
Eccentricity
0.46904
Inclination
6.1293°
RAAN
273.525°
Arg. of periapsis
122.5281°
True anomaly
237.44574°
Mean anomaly
291.4584°
Eccentric anomaly
264.69958°
Mean motion
1.58709 °/min
Orbital period
226.83 mins
BSTAR
0.0055591
Loading maneuver chart data...
Computing Atmospheric mass density...
Loading historical data...
Loading historical data...
Loading historical data...
Loading historical data...
Loading historical data...
Loading historical data...
Loading historical data...
Other satellites on launch #95 in the year 2021 (2021-10-24 UTC)

Documentation

Showing up to 5 results
|